Погода в Приаргунске

Погода в Приаргунске : погода сейчас, прогноз погоды и архив. Всё, что Вы хотите узнать о погоде в Приаргунске!

Хотите узнать прогноз погоды в Приаргунске? Тогда Вам сюда: Погода в Приаргунске

Поиск расширенной информации на нашем сайте:

Другие новости

Новости СМИ2

Главная страница сайта

Новости сайта

03.07.2017

Напоминаем, что на нашем специализированном сайте Метеоцентр.Азия вы можете получить высокодетализированные автоматические прогнозы погоды по пунктам России, СНГ и мира в авиационном формате (включающие направление и скорость ветра, видимость, явления погоды, количество и форму облачности, нижнюю и верхнюю границу облачности).

Рекомендуем: матрасы Поролоновые Спб

Погода в Приаргунске - сегодня

Время (UTC), дата Ветер
(°,м/с) 
Видим.   Явления Облачность Т
(°С)
Тd
(°С)
f(%) Тe
(°С)
Pmin
(гПа)
dP
(гПа)
Po
(мм)
O2
(г/м3)
Тmin Tmax R s Состояние
почвы
06 09.12.17 070 (В) 20000 м    6/6 2000 м средняя 
[Ac lent]
-15.4 -19.8 69 -18  1012.2  -0.1  709  304           
09 09.12.17 040 (СВ) 5-10{10}  20000 м  позёмок  10/10 2000 м 
[Ns]
-15.1 -19.2 71 -21  1014.7  2.4  711  305           
12 09.12.17 330 (СЗ) 3{16}  20000 м  позёмок  8/8 2000 м средняя 
[As op]
-22 -27.5 61 -27  1020.8  3.9  714  314    -14.4       
15 09.12.17 310 (СЗ) 7-10{14}  20000 м  позёмок  ясно 
-23.6 -29.8 57 -32  1023.6  2.1  715  317           
18 09.12.17 350 (С) 5{13}  20000 м  позёмок  3/3 2000 м средняя 
[Ac lent]
-23.9 -29.9 58 -31  1025.3  1.5  716  318           
21 09.12.17 310 (СЗ) 20000 м    ясно 
-25.8 -30.2 67 -32  1027  1.1  717  321           
00 10.12.17 050 (СВ) 20000 м    8/8 2000 м средняя 
[As op]
-25.8 -30.5 65 -29  1029.2  2.1  719  322  -28.6      равномерный
сухой снег
100% 
03 10.12.17 030 (СВ) 8-11{11}  20000 м    8/4 2000 м средняя, верхняя 
[Ac lent|Ci fib]
-23.2 -29.4 57 -32  1029.5  719  319           
06 10.12.17 030 (СВ) 5{12}  20000 м    3/3 2000 м средняя 
[Ac lent]
-22.2 -29 54 -29  1029.6  0.4  720  317           
09 10.12.17 320 (СЗ) 20000 м    3/0 верхняя 
[Ci fib]
-25 -30.6 60 -31  1032.5  1.9  721  322           
12 10.12.17 330 (СЗ) 20000 м    ясно 
-25.2 -31.1 58 -30  1034.1  1.4  722  322    -22.2       
15 10.12.17 310 (СЗ) 4{10}  20000 м    4/4 2000 м средняя 
[Ac trans]
-24.7 -31.1 55 -31  1034.6  0.5  723  322           
18 10.12.17 310 (СЗ) 20000 м    3/3 2000 м средняя 
[Ac trans]
-27.1 -32.7 59 -31  1036  0.7  723  325           
21 10.12.17 290 (З) 20000 м    ясно 
-26.3 -32.3 57 -35  1036.6  0.8  724  325           
00 11.12.17 110 (В) 20000 м    ясно 
-31.3 -35.1 69 -35  1039.3  725  332  -32.1      равномерный
сухой снег
100% 
03 11.12.17 290 (З) 20000 м    9/3 2000 м средняя, верхняя 
[Ac trans|Cs]
-23.2 -30.2 53 -31  1036.8  0.1  724  321           
06 11.12.17 280 (З) 20000 м    5/0 верхняя 
[Ci fib]
-20.8 -29 48 -26  1035.4  -0.6  724  318           
09 11.12.17 310 (СЗ) 20000 м    ясно 
-26.8 -31.3 66 -30  1037.3  -0.1  724  325           
12 11.12.17 тихо ()   20000 м    ясно 
-30.5 -34.4 69 -31  1039.1  0.7  725  331    -20.7       
15 11.12.17 080 (В) 20000 м    ясно 
-31.6 -35.6 68 -32  1039.4  0.1  725  332           
18 11.12.17 130 (ЮВ) 20000 м    ясно 
-32.5 -36.7 66 -36  1039.6  0.1  725  333           
21 11.12.17 220 (ЮЗ) 20000 м    ясно 
-35.8 -40.1 64 -37  1040.9  0.2  725  338           
00 12.12.17 170 (Ю) 20000 м    ясно 
-37.2 -41.8 62 -38  1042.1  0.6  725  340  -37.2      равномерный
сухой снег
100% 
03 12.12.17 150 (ЮВ) 20000 м    ясно 
-27.2 -32.8 59 -31  1039.3  0.4  725  326  -37.2         
06 12.12.17 200 (Ю) 20000 м    ясно 
-20.9 -29.9 44 -24  1036.8  -0.6  725  318           
Время (UTC), дата Ветер
(°,м/с) 
Видим.   Явления Облачность Т
(°С)
Тd
(°С)
f(%) Тe
(°С)
Pmin
(гПа)
dP
(гПа)
Po
(мм)
O2
(г/м3)
Тmin Tmax R s Состояние
почвы

Для получения пояснительной информации подведите курсор к названию столбца.

ПОГОДА в Приаргунске - архив

Всё, что Вы хотите узнать о погоде в Приаргунске - удобно и подробно!

Выберите нужную дату (начиная с 1 января 2015* года) и нажмите кнопку "Найти".
Будут отображены архивные сводки погоды по пункту Приаргунск, начиная с указанной даты.


Отображать данные в формате CSV (для использования в таблицах Excel)


Внимание! Наш архив погоды предназначен исключительно для личного некоммерческого использования в познавательных целях. Если Вам необходимы официальные справки о состоянии погоды (для производственных, юридических, коммерческих и т.п. целей), обращайтесь в органы Росгидромета.

*Примечание: данная дата относится к архиву по метеостанциям СССР (Россия, СНГ, Балтия).
Архив по метеостанциям Зарубежной Европы и Азии (кроме Китая) хранится 10 дней, по другим регионам земного шара (Китай, Африка, Америка, Австралия, Океания) - 1 день.

Приаргунск - район местоположения метеостанции


Название, широта, долгота, высота метеостанции:
Приаргунск 50.4°ш. 119.1°д. 521 м над ур. моря [Российская Федерация]

Дополнительная информация

В oтличие oт бoльшинства пoгoдных сайтoв мы публикуем пoдрoбную метеoинфoрмацию в детальнoм прoфессиoнальнoм фoрмате.

Характеристики температуры и влажнoсти вoздуха измеряются на высoте 2 м в тени вдали oт зданий и деревьев.
Скoрoсть ветра измеряется на высoте 10 м (на урoвне рoста челoвека скoрoсть ветра ниже в 1.5-2 раза). Если метеoстанция нахoдится в гoрoде или в лесу, тo скoрoсть ветра занижена на 2-4 м/с пo сравнению с oткрытым местoм. Скoрoсть ветра над акватoриями крупных рек и oзёр, а также на вершинах хoлмoв на 2-5 м/с выше, чем в oбычных услoвиях.
Атмoсфернoе давление в разных тoчках местнoсти мoжет значительнo oтличаться oт давления на метеoстанции, в зависимoсти oт услoвий рельефа (при пoдъёме на 10 м давление пoнижается примернo на 1 мм рт.ст.).